map of ABZ home
ABZ - Airport
Location
City:  Aberdeen, Aberdeenshire, Scotland, United Kingdom
Name:Dyce
ICAO:EGPD
IATA:ABZ

Details
Type:Airport (Aerodrome, Airfield)
Use:Public/Civil, International (customs port of entry)
Latitude:5712'09"N (57.202500)
Longitude:211'53"W (-2.198055)
Elevation:215 ft (66 m)
Variation:1.64W (WMM2015v2 magnetic declination)
0.22 annual change
Runways:4
Longest:6407 × 151 ft (1953 × 46 m), paved

Time
Time Zone:UTC+0 (DST+1)
Local Time:

Weather
METAR:EGPD 041350Z 29013KT 9999 SCT022 05/01 Q1007
TAF:EGPD 041102Z 0412/0512 30012KT 9999 FEW012 SCT020 PROB40
TEMPO 0412/0418 31015G25KT PROB30
TEMPO 0412/0414 7000 BKN012
BECMG 0421/0424 24005KT

Related Locations
Nearby:
Farthest:SZS: 11610 mi / 18684 km
Ryan's Creek, Stewart Island, STL, NZ

Find:

   beyond  
but within

Other Information
Maps:
NOTAMs:
Links:
Sources:

  
  • flag of United Kingdom
  • flag of Scotland
  

Airport Diagram

Airport diagram for ABZ

Airport diagram PDF

Sectional Chart

Flight Planning
at skyvector.com

Satellite Image

Google Maps Satellite view

 

Copyright © 2004-2019 Karl L. Swartz. All rights reserved.
The Great Circle Mapper name and logo are trademarks of the Great Circle Mapper.
All other trademarks mentioned herein belong to their respective owners.
Please see credits for attibutions and further copyright information.

  Follow gcmap on Facebook Follow gcmap on Twitter GCmap on LinkedIn

hCard Microformat

Geo Microformat